Location: Civís
(42.4648°N, 1.4232°E)
Time: 19:44:38
(UTC+00:00)

ATLAS 2AS CENTAUR R/B - Pass Details

Date: 08 August 2025
Orbit: 1047 x 1163 km, 63.7° (Epoch: 12 December)

Event Time Altitude Azimuth Distance (km) Brightness Sun altitude
Rises 20:57:13 0° 316° (NW) 3,831 7.3 -18.1°
Reaches altitude 10° 21:00:09 10° 306° (NW) 2,867 6.2 -18.5°
Maximum altitude 21:05:52 30° 248° (WSW) 1,775 4.1 -19.3°
Enters shadow 21:11:09 12° 192° (SSW) 2,736 4.5 -19.9°
